Regional Weather Roundup
Issued by NWS Sioux Falls, SD

Home | Current Version | Previous Version | Text Only | Print | Product List | Glossary On
Versions: 1 2 3 4 5 6 7 8 9 10 11 12 13 14 15 16 17 18 19 20 21 22 23 24 25 26 27 28 29 30 31 32 33 34 35 36 37 38 39 40 41 42 43 44 45 46 47 48 49 50
000
ASUS43 KFSD 221302
RWRFSD

WEATHER ROUNDUP FOR SE SOUTH DAKOTA/SW MINNESOTA/NW IOWA
NATIONAL WEATHER SERVICE SIOUX FALLS SD
700 AM CST MON DEC 22 2014

NOTE: "FAIR" INDICATES FEW OR NO CLOUDS BELOW 12,000 FEET WITH NO
SIGNIFICANT WEATHER AND OR OBSTRUCTIONS TO VISIBILITY.


SDZ038>040-050-052>070-221400-
SOUTHEAST SOUTH DAKOTA

CITY           SKY/WX    TMP DP  RH WIND       PRES   REMARKS
CHAMBERLAIN    NOT AVBL
HURON          CLOUDY    31  29  92 W8        29.44R WCI  23
MADISON        LGT RAIN  36  36 100 S7        29.44S
MITCHELL       CLOUDY    35  33  92 W7        29.45R WCI  29
SIOUX FALLS    LGT RAIN  40  39  97 S10       29.46S
WINNER         CLOUDY    39  34  82 W18G25    29.48R
YANKTON        CLOUDY    39  37  93 S3        29.47S
$$

MNZ071-072-080-081-089-090-097-098-221400-
SOUTHWEST MINNESOTA

CITY           SKY/WX    TMP DP  RH WIND       PRES   REMARKS
FAIRMONT       CLOUDY    37  36  93 SE17G23   29.58S
JACKSON        DRIZZLE   37  37 100 SE15G21   29.55F
LUVERNE        LGT RAIN  41  37  87 SE13      29.49S
MARSHALL       CLOUDY    37  36  93 SE12      29.51S
MONTEVIDEO     DRIZZLE   37  37 100 S10       29.53S
PIPESTONE      DRIZZLE   37  37 100 S10G17    29.46F
REDWOOD FALLS  LGT RAIN  39  38  96 SE17      29.55S FOG
TRACY          RAIN      39  38  97 S12       29.51F
WINDOM         LGT RAIN  39  37  93 SE15      29.54S
WORTHINGTON    CLOUDY    39 -11  11 SE16      29.52S
$$

IAZ001>003-012>014-020>022-031-032-NEZ013-014-SDZ071-221400-
NORTHWEST IOWA

CITY           SKY/WX    TMP DP  RH WIND       PRES   REMARKS
DENISON        MIX PCPN  41  41 100 S15       29.54R
ESTHERVILLE    FOG       37  37 100 SE18      29.57S VSB 1
SIOUX CITY     LGT RAIN  43  41  93 S13       29.50F FOG
SPENCER        LGT RAIN  40  38  93 SE15      29.55S FOG
$$

ABBREVIATIONS USED IN REMARKS
   TC - TEMPERATURE IN CELSIUS
  WCI - WIND CHILL INDEX
   HX - HEAT INDEX
  VSB - VISIBILITY




USA.gov is the U.S. government's official web portal to all federal, state and local government web resources and services.